Central Park, NY

1:52 AM EDT on April 24, 2017 (GMT -0400)
Central Park

Weather History for KNYC - May, 2012

Change the Weather History Date:

Friday, May 11, 2012

  Actual Average Record
Temperature  
Mean Temperature 59 °F 61 °F  
Max Temperature 68 °F 70 °F 92 °F (1993)
Min Temperature 49 °F 52 °F 36 °F (1913)
Degree Days  
Heating Degree Days 6 5  
Month to date heating degree days 66 70  
Since 1 July heating degree days 3688 4663  
Cooling Degree Days 0 1  
Month to date cooling degree days 0 11  
Year to date cooling degree days 24 23  
Growing Degree Days 9 (Base 50)    
Moisture  
Dew Point 33 °F    
Average Humidity 42    
Maximum Humidity 61    
Minimum Humidity 22    
Precipitation  
Precipitation 0.00 in 0.12 in 1.67 in (1981)
Month to date precipitation 1.84 1.40  
Year to date precipitation 10.96 17.00  
Snow  
Snow 0.00 in 0.00 in 0.00 in (2002)
Month to date snowfall 0.0 0.0  
Since 1 July snowfall 7.4 25.8  
Snow Depth 0.00 in    
Sea Level Pressure  
Sea Level Pressure 29.97 in    
Wind  
Wind Speed 6 mph (WNW)    
Max Wind Speed 16 mph    
Max Gust Speed 30 mph    
Visibility 10 miles    
Events      
T = Trace of Precipitation, MM = Missing Value Source: NWS Daily Summary

Daily Weather History Graph

Daily Weather History Graph

Search for Another Location

Airport or City:

Trip Planner

Search our weather history database for the weather conditions in past years. The results will help you decide how hot, cold, wet, or windy it might be!

Date:

Astronomy

May. 11, 2012 Rise Set
Actual Time 5:42 AM EDT 8:02 PM EDT
Civil Twilight 5:11 AM EDT 8:33 PM EDT
Nautical Twilight 4:33 AM EDT 9:11 PM EDT
Astronomical Twilight 3:51 AM EDT 9:54 PM EDT
Moon 12:40 AM EDT (5/11) 11:12 AM EDT (5/11)
Length of Visible Light 15h 22m
Length of Day
14h 20m
Waning Gibbous, 63% of the Moon is Illuminated
May 11
Waning Gibbous
May 12
Last Quarter
May 20
New
May 28
First Quarter
Jun 4
Full

Hourly Weather History & Observations

Time (EDT) Temp. Dew Point Humidity Pressure Visibility Wind Dir Wind Speed Gust Speed Precip Events Conditions
12:51 AM 53.1 °F 37.0 °F 55% 29.85 in 10.0 mi Variable 3.5 mph - N/A   Clear
1:51 AM 51.1 °F 37.0 °F 59% 29.87 in 10.0 mi Variable 3.5 mph - N/A   Clear
2:51 AM 52.0 °F 37.0 °F 57% 29.87 in 10.0 mi Variable 5.8 mph - N/A   Clear
3:51 AM 51.1 °F 37.0 °F 59% 29.89 in 10.0 mi Variable 6.9 mph - N/A   Clear
4:51 AM 50.0 °F 37.0 °F 61% 29.90 in 10.0 mi North - - N/A   Clear
5:51 AM 50.0 °F 37.0 °F 61% 29.93 in 10.0 mi Variable 6.9 mph - N/A   Clear
6:51 AM 50.0 °F 37.0 °F 61% 29.96 in 10.0 mi Variable 5.8 mph - N/A   Clear
7:51 AM 52.0 °F 36.0 °F 54% 29.98 in 10.0 mi WNW 8.1 mph - N/A   Clear
8:51 AM 55.0 °F 37.9 °F 53% 29.98 in 10.0 mi Calm Calm - N/A   Clear
9:51 AM 57.9 °F 36.0 °F 44% 29.98 in 10.0 mi West 9.2 mph 17.3 mph N/A   Clear
10:51 AM 61.0 °F 37.0 °F 41% 29.99 in 10.0 mi WSW 3.5 mph - N/A   Clear
11:51 AM 64.0 °F 35.1 °F 34% 29.98 in 10.0 mi NW 9.2 mph - N/A   Clear
12:51 PM 63.0 °F 35.1 °F 35% 29.96 in 10.0 mi Variable 3.5 mph - N/A   Scattered Clouds
1:51 PM 66.0 °F 32.0 °F 28% 29.96 in 10.0 mi NW 8.1 mph 18.4 mph N/A   Partly Cloudy
2:51 PM 66.9 °F 30.9 °F 26% 29.95 in 10.0 mi Variable 6.9 mph - N/A   Partly Cloudy
3:51 PM 68.0 °F 30.9 °F 25% 29.95 in 10.0 mi WNW 11.5 mph 21.9 mph N/A   Clear
4:51 PM 68.0 °F 30.0 °F 24% 29.95 in 10.0 mi West 9.2 mph 18.4 mph N/A   Clear
5:51 PM 68.0 °F 28.9 °F 23% 29.96 in 10.0 mi Variable 6.9 mph 19.6 mph N/A   Clear
6:51 PM 66.9 °F 27.0 °F 22% 29.97 in 10.0 mi WNW 8.1 mph 21.9 mph N/A   Clear
7:51 PM 66.0 °F 28.9 °F 25% 30.00 in 10.0 mi WNW 8.1 mph - N/A   Clear
8:51 PM 64.0 °F 28.9 °F 27% 30.04 in 10.0 mi Variable 3.5 mph - N/A   Clear
9:51 PM 63.0 °F 28.9 °F 28% 30.08 in 10.0 mi NW 8.1 mph - N/A   Clear
10:51 PM 62.1 °F 28.9 °F 29% 30.11 in 10.0 mi Calm Calm - N/A   Clear
11:51 PM 59.0 °F 28.9 °F 32% 30.12 in 10.0 mi Variable 3.5 mph - N/A   Clear